Regional Weather Roundup
Issued by NWS

Home | Current Version | Previous Version | Text Only | Print | Product List | Glossary On
Versions: 1 2 3 4 5 6 7 8 9 10 11 12 13 14 15 16 17 18 19 20 21 22 23 24 25 26 27 28 29 30 31 32 33 34 35 36 37 38 39 40 41 42 43 44 45 46 47 48 49 50
000
ASUS43 KMPX 150601
RWRMN
WEATHER ROUNDUP FOR MINNESOTA
NATIONAL WEATHER SERVICE TWIN CITIES/CHANHASSEN MN
100 AM CDT MON SEP 15 2014


NOTE: "FAIR" INDICATES FEW OR NO CLOUDS BELOW 12,000 FEET WITH NO
SIGNIFICANT WEATHER AND/OR OBSTRUCTIONS TO VISIBILITY. N/A MEANS
CURRENT SKY AND/OR WEATHER CONDITIONS ARE NOT AVAILABLE.

MNZ060>063-068>070-150700-
   Twin Cities Metro

CITY           SKY/WX    TMP DP  RH WIND       PRES   REMARKS
TWIN CITIES    CLOUDY    54  44  69 NW5       30.15S
6HR MIN TEMP:  54; 6HR MAX TEMP:  59;

ST PAUL        CLOUDY    53  46  77 N5        30.16R
CRYSTAL        CLOUDY    52  45  77 CALM      30.15R
BLAINE         CLOUDY    52  46  82 CALM      30.15S
LAKEVILLE      CLOUDY    50  48  93 N5        30.14F
EDEN PRAIRIE   CLOUDY    54  46  74 CALM      30.15R
6HR MIN TEMP:  54; 6HR MAX TEMP:  59;

SOUTH ST PAUL  CLOUDY    55  44  66 CALM      30.15S
LAKE ELMO      CLOUDY    50  46  87 CALM      30.16S
$$
MNZ001>005-007-008-013>017-022>024-027-028-150700-
   Northwest Minnesota

CITY           SKY/WX    TMP DP  RH WIND       PRES   REMARKS
BEMIDJI        CLOUDY    46  43  91 W6        30.14S
HALLOCK        PTCLDY    45  39  81 W3        30.16R
ROSEAU         CLEAR     43  37  81 W5        30.14S
WARROAD        CLEAR     39  36  87 W5        30.14S
THIEF RVR FALL CLOUDY    46  39  76 CALM      30.16S
CROOKSTON      CLOUDY    46  43  87 CALM      30.18S
FOSSTON        CLOUDY    43  41  93 CALM      30.17R
DETROIT LAKES  MOCLDY    46  43  87 NW5       30.17S
MOORHEAD       CLOUDY    52  46  82 CALM      30.18S
PARK RAPIDS    CLOUDY    42  41  96 CALM      30.15S
MAHNOMEN       CLOUDY    46  43  92 CALM      30.16S
$$
MNZ006-009>011-018-025>026-150700-
   North Central Minnesota

CITY           SKY/WX    TMP DP  RH WIND       PRES   REMARKS
BAUDETTE       CLEAR     44  41  89 VRB3      30.13R
FLAG ISLAND    PTCLDY    45  39  81 W9        30.11S
INTL FALLS     CLOUDY    46  44  93 W6        30.09S
6HR MIN TEMP:  46; 6HR MAX TEMP:  51; 6HR PCP:  0.05;

WASKISH        CLOUDY    48  45  87 CALM      30.13S
BIG FORK       CLOUDY    46  45  93 SW2       30.13R
LONGVILLE      CLEAR     37  36  93 CALM      30.13S
GRAND RAPIDS   PTCLDY    45  39  81 W6        30.12S
CRANE LAKE     CLOUDY    45  43  93 CALM      30.10S
ORR            CLOUDY    45  43  93 CALM      30.08S
COOK           CLOUDY    45  45 100 CALM      30.11R
WALKER         CLOUDY    45  42  92 W3        30.14S
$$
MNZ012-019>021-037-150700-
   Northeast Minnesota

CITY           SKY/WX    TMP DP  RH WIND       PRES   REMARKS
DULUTH         CLEAR     45  41  86 W8        30.11R
6HR MIN TEMP:  44; 6HR MAX TEMP:  53;

ELY            CLOUDY    45  43  93 CALM      30.09S
HIBBING        CLOUDY    44  41  89 CALM      30.11S
EVELETH        FAIR      43  43 100 CALM      30.11S
DULUTH HARBOR  CLEAR     52  46  82 W9        30.12R
TWO HARBORS    CLOUDY    46  43  87 W5        30.07S
SILVER BAY     PTCLDY    46  45  93 CALM      30.07S
GRAND MARAIS     N/A     46  43  89 W5        30.06R
G MARAIS ARPRT CLEAR     41  37  87 W6        30.06S
$$
MNZ029>031-032-039>041-046>048-054>057-064-150700-
   West Central Minnesota

CITY           SKY/WX    TMP DP  RH WIND       PRES   REMARKS
FERGUS FALLS   MOCLDY    45  43  93 CALM      30.18S
WHEATON        MOCLDY    45  41  87 CALM      30.19S
MORRIS         MOCLDY    46  43  87 CALM      30.15S
ALEXANDRIA     PTCLDY    47  44  90 N6        30.16F
ELBOW LAKE     FAIR      45  45  98 N3        30.16S
WADENA         PTCLDY    39  39 100 CALM      30.15S FOG
GLENWOOD       PTCLDY    43  39  87 CALM      30.16S
APPLETON       CLOUDY    48  46  93 CALM      30.16S
BENSON         MOCLDY    45  45 100 CALM      30.16S
ORTONVILLE     CLOUDY    48  43  81 CALM      30.17R
MADISON        CLOUDY    52  48  87 NW5       30.16S
WILLMAR        FAIR      48  46  93 CALM      30.17S
$$
MNZ033>034-036-042>043-049>051-058-059-150700-
   Central Minnesota

CITY           SKY/WX    TMP DP  RH WIND       PRES   REMARKS
ST CLOUD       PTCLDY    47  44  90 CALM      30.15F
6HR MIN TEMP:  47; 6HR MAX TEMP:  57;

SAUK CENTRE    FAIR      40  40  99 CALM      30.16S
PAYNESVILLE    MOCLDY    44  44  99 CALM      30.16F
AITKIN         CLEAR     43  37  81 CALM      30.13S
PINE RIVER     CLEAR     39  39 100 CALM      30.18S
BRAINERD       CLEAR     39  39 100 CALM      30.16R FOG
STAPLES        PTCLDY    39  39 100 CALM      30.16S
LONG PRAIRIE   CLOUDY    46  45  93 CALM      30.16S
LITTLE FALLS   CLOUDY    45  43  93 CALM      30.16S
LITCHFIELD       N/A     50  48  93 CALM      30.16F
BUFFALO        MOCLDY    51  44  79 CALM      30.16F
MAPLE LAKE     MOCLDY    48  46  95 CALM      30.17S
$$
MNZ037-044-045-052-053-150700-
   East Central Minnesota

CITY           SKY/WX    TMP DP  RH WIND       PRES   REMARKS
PRINCETON      MOCLDY    46  45  93 CALM      30.16S
MORA           PTCLDY    41  37  87 CALM      30.17S
CAMBRIDGE      MOCLDY    48  41  76 CALM      30.14S
RUSH CITY      MOCLDY    44  42  91 CALM      30.15S
MOOSE LAKE     CLEAR     39  37  93 SW3       30.13R
HINCKLEY       MOCLDY    45  43  93 W3        30.15R
CLOQUET        CLEAR     45  41  87 W8        30.12R
MCGREGOR       CLEAR     43  43 100 SW3       30.15R
$$
MNZ071>073-080-081-089-090-097-098-150700-
   Southwest Minnesota

CITY           SKY/WX    TMP DP  RH WIND       PRES   REMARKS
MONTEVIDEO     CLOUDY    50  45  81 N3        30.17S
GRANITE FALLS  LGT RAIN  49  48  98 CALM      30.18S
CANBY          LGT RAIN  49  46  89 NW3       30.17F
MARSHALL       CLOUDY    48  45  87 N6        30.15S
REDWOOD FALLS  LGT RAIN  50  47  89 N6        30.15F
OLIVIA         CLOUDY    50  45  81 CALM      30.15F
PIPESTONE      LGT RAIN  48  45  87 CALM      30.15R
WINDOM         LGT RAIN  50  46  87 CALM      30.16R
WORTHINGTON    CLOUDY    48  45  87 NE7       30.14F
JACKSON        LGT RAIN  50  45  81 N3        30.16R
TRACY          LGT RAIN  49  47  92 CALM      30.15F
SLAYTON        RAIN      48  46  92 CALM      30.15F
$$
MNZ065>067-074>077-082>085-091>093-150700-
   South Central Minnesota

CITY           SKY/WX    TMP DP  RH WIND       PRES   REMARKS
MANKATO        CLOUDY    52  45  76 N8        30.14F
NEW ULM        CLOUDY    50  50 100 NW5       30.16R
ST JAMES       CLOUDY    52  48  87 CALM      30.16S
FAIRMONT       CLOUDY    52  43  71 NE5       30.14F
GLENCOE        CLOUDY    52  46  80 CALM      30.15S
FARIBAULT      CLOUDY    54  46  76 CALM      30.15F
OWATONNA       CLOUDY    52  46  82 N5        30.13F
WASECA         CLOUDY    50  45  81 N6        30.15F
ALBERT LEA     LGT RAIN  52  46  82 NE3       30.14F
$$
MNZ078>079-086>088-094>096-150700-
   Southeast Minnesota

CITY           SKY/WX    TMP DP  RH WIND       PRES   REMARKS
ROCHESTER      LGT RAIN  52  45  77 N10       30.15F
6HR MIN TEMP:  52; 6HR MAX TEMP:  60; 6HR PCP: TRACE;

RED WING       CLOUDY    52  48  87 N3        30.13F
STANTON        CLOUDY    51  49  91 CALM      30.14S
DODGE CENTER   RAIN      50  46  87 NE7       30.13F
WINONA         LGT RAIN  54  48  82 CALM      30.16R
AUSTIN         RAIN      52  46  82 N3        30.15S
PRESTON        CLOUDY    52  49  91 N5        30.15F
$$
ABBREVIATIONS USED IN REMARKS
   TC - TEMPERATURES IN CELSIUS
  WCI - WIND CHILL INDEX
   HX - HEAT INDEX
  VSB - VISIBILITY
$$


USA.gov is the U.S. government's official web portal to all federal, state and local government web resources and services.